YAOGAN 9B

Satellite information

Favourite Embed

Satellite Type and Status

PAYLOADIN ORBIT

Key statistics

Satellite YAOGAN 9B at a glance.

Uptime

5763

Days in orbit

Revolutions

≈ 13.5

Per day

Orbit

LEO

Low Earth Orbit

Inclination

63.4

Latest

Satellite identification and parameters

Extended collection of information and parameters for YAOGAN 9B.

Object identification

Identified? True

Debris? False

Object name: YAOGAN 9B

International designator: 2010-009B

Object number (NORAD): 36414

Object ID (CCSDS): 36414

Country: PEOPLES REPUBLIC OF CHINA (PRC)

Current information (Y/N): Y

RCS size: LARGE

Orbital parameters

Period: 107.011 minutes

Inclination: 63.3674 deg

SMA: 7466.413 km

Apoapsis: 1478.402 km

Periapsis: 698.154 km

RAAN: 117.9355 deg

Eccentricy: 0.05225048

Argument of periapsis: 19.4765 deg

Mean anomaly: 342.5429 deg

Mean motion: 13.45658165 rev/day

Mean motion (dot): 0.00000004 rev/day2

B* drag term: 0.000069788347 1/REarth

Two-line elements (TLE)

Creation date: Dec. 14, 2025, 3:07 a.m.

Reference frame: TEME

Reference center: EARTH

Epoch: Dec. 13, 2025, 2:58 p.m. UTC

TLE line 0: 0 YAOGAN 9B

TLE line 1: 1 36414U 10009B 25347.62407398 .00000004 00000-0 69788-4 0 9994

TLE line 2: 2 36414 63.3674 117.9355 0522505 19.4765 342.5429 13.45658165774776

Live tracking on map

Real-time ground track for satellite YAOGAN 9B.

In-orbit conjunctions

There are no conjunctions computed for YAOGAN 9B, at the moment. Check back to stay up to date, as we update our databases every day.

Go to all conjunctions

Associated space launch

YAOGAN 9B was lifted into orbit during the mission ‘Long March 4C | Yaogan-9’, on board a Long March 4C space rocket.

The launch took place on March 5, 2010, 4:55 a.m. from Launch Area 94 (SLS-2 / 603).

For more information about the launch, click the button.

Launch to space Long March 4C | Yaogan-9
Long March 4C | Yaogan-9

Agency: N/A

Status: Launch Successful

Launch date: March 5, 2010, 4:55 a.m. UTC

Rocket: Long March 4C

Launch pad: Launch Area 94 (SLS-2 / 603)

Location: Jiuquan Satellite Launch Center, People's Republic of China

...

Latest news about this satellite

There are no fresh news available about this satellite. Check back as we update our databases every day.


Newsletter sign-up

Weekly statistics, charts and insights to help you stay on top of the space industry.